Location: Vinland
(47.7731°N, 122.6974°W)
Time: 12:57:45
(UTC+00:00)

Tiros 1 - Pass Details

Date: 27 March 2023
Orbit: 627 x 660 km, 48.4° (Epoch: 28 May)

Event Time Altitude Azimuth Distance (km) Brightness Sun altitude
Exits shadow 12:33:48 14° 204° (SSW) 1,813 9.0 -14.9°
Maximum altitude 12:37:17 33° 146° (SSE) 1,117 8.5 -14.3°
Drops below altitude 10° 12:41:34 10° 83° (E) 2,078 11.1 -13.6°
Sets 12:44:05 0° 74° (ENE) 2,992 12.6 -13.2°
